This is the latest recevied weather packets stored in our database for station/object WX0ABE-13. If no packets are shown the sender has not sent any weather packets the latest 10 day(s).
| Time | Temp. | Humidity | Pressure | Rain* | Wind** | Luminosity | Snow |
|---|---|---|---|---|---|---|---|
| 1787707137 | 26.11° C | 55% | 1022.1 hPa | 0 mm | - | 8 W/m² | - |
| 1787706836 | 26.11° C | 55% | 1021.8 hPa | 0 mm | - | 11 W/m² | - |
| 1787706532 | 26.11° C | 55% | 1022 hPa | 0 mm | - | 18 W/m² | - |
| 1787706228 | 26.11° C | 52% | 1022 hPa | 0 mm | - | 24 W/m² | - |
| 1787705922 | 26.11° C | 49% | 1022 hPa | 0 mm | - | 31 W/m² | - |
| 1787705617 | 26.11° C | 47% | 1021.9 hPa | 0 mm | - | 35 W/m² | - |
| 1787705314 | 26.11° C | 48% | 1022 hPa | 0 mm | - | 36 W/m² | - |
| 1787705013 | 27.22° C | 50% | 1022.2 hPa | 0 mm | - | 43 W/m² | - |
| 1787704710 | 27.22° C | 53% | 1022.2 hPa | 0 mm | - | 63 W/m² | - |
| 1787704405 | 27.78° C | 51% | 1022.3 hPa | 0 mm | - | 55 W/m² | - |
| 1787704100 | 27.78° C | 49% | 1022.2 hPa | 0 mm | - | 34 W/m² | - |
| 1787703799 | 27.78° C | 48% | 1022.1 hPa | 0 mm | - | 22 W/m² | - |
| 1787703495 | 27.78° C | 48% | 1021.9 hPa | 0 mm | - | 37 W/m² | - |
| 1787703189 | 27.78° C | 47% | 1021.7 hPa | 0 mm | - | 55 W/m² | - |
| 1787702885 | 28.33° C | 47% | 1021.9 hPa | 0 mm | - | 58 W/m² | - |
| 1787702581 | 27.78° C | 46% | 1021.6 hPa | 0 mm | - | 93 W/m² | - |
| 1787702276 | 27.78° C | 47% | 1021.2 hPa | 0 mm | - | 75 W/m² | - |
| 1787701975 | 27.78° C | 46% | 1021.3 hPa | 0 mm | - | 24 W/m² | - |
| 1787701672 | 27.78° C | 47% | 1021.4 hPa | 0 mm | - | 12 W/m² | - |
| 1787701367 | 27.78° C | 46% | 1021.6 hPa | 0 mm | - | 11 W/m² | - |
| 1787701062 | 27.78° C | 46% | 1021.8 hPa | 0 mm | - | 13 W/m² | - |
| 1787700757 | 28.33° C | 45% | 1021.7 hPa | 0 mm | - | 15 W/m² | - |
| 1787700454 | 28.33° C | 44% | 1021.7 hPa | 0 mm | - | 19 W/m² | - |
| 1787700150 | 28.89° C | 44% | 1021.7 hPa | 0 mm | - | 27 W/m² | - |
| 1787699845 | 28.89° C | 44% | 1021.4 hPa | 0 mm | - | 39 W/m² | - |
* Rain latest hour (hover to see other rain measurements)
** Current wind speed in m/s (hover to see current wind gust speed)